Friday, November 17, 2017, 9:06 PM GMT
Back to Local

CWQO, Ile Bicquette, Que.

Location: , , Canada Lat: 48.416
Local Time: 9:06 PM GMT (21:06 GMT) Lon: -68.893
Time Zone: GMT Elev: 22 ft

Show me the last for .
Show Coded

Time T Td Feel RH Dir Speed Gust Alt SLP Vis Weather Sky Remarks
2017-11-17 20:00 31 26 16 78 310° 28 36 - - 0 Peak wind: 36 mph (32 kts) from 310° at 08 min
2017-11-17 19:00 32 26 17 76 310° 31 - - - 0 Peak wind: 36 mph (32 kts) from 310° at 03 min
2017-11-17 18:00 33 26 18 76 310° 28 33 - - 0 Peak wind: 35 mph (31 kts) from 310° at 28 min
2017-11-17 17:00 34 29 19 82 310° 29 36 - - 0 Peak wind: 35 mph (31 kts) from 310° at 34 min
2017-11-17 16:00 35 30 21 79 310° 28 33 - - 0 Peak wind: 33 mph (29 kts) from 310° at 54 min
2017-11-17 15:00 36 30 23 79 310° 24 30 - - 0 Peak wind: 29 mph (26 kts) from 310° at 56 min
2017-11-17 14:00 36 31 24 83 310° 18 24 - - 0 Peak wind: 24 mph (21 kts) from 310° at 58 min
2017-11-17 13:00 36 31 26 84 300° 16 - - - 0 None
2017-11-17 12:00 36 33 26 91 310° 15 - - - 0 Peak wind: 19 mph (17 kts) from 310° at 58 min
2017-11-17 11:00 35 34 27 95 340° 10 - - - 0 None
2017-11-17 10:00 35 34 27 96 360° 10 - - - 0 None
2017-11-17 09:00 35 34 30 95 10° 7 - - - 0 None
2017-11-17 08:00 36 35 29 95 10° 8 - - - 0 None
2017-11-17 07:00 36 35 31 95 20° 6 - - - 0 None
2017-11-17 06:00 36 34 31 94 60° 6 - - - 0 None
2017-11-17 05:00 36 34 31 92 80° 6 - - - 0 None
2017-11-17 04:00 36 34 33 93 110° 3 - - - 0 None
2017-11-17 03:00 36 34 - 93 170° 2 - - - 0 None
2017-11-17 02:00 36 34 33 92 160° 3 - - - 0 None
2017-11-17 01:00 36 34 32 93 160° 5 - - - 0 None
2017-11-17 00:00 36 34 33 91 140° 3 - - - 0 None
2017-11-16 23:00 36 34 31 90 150° 7 - - - 0 None
2017-11-16 22:00 35 33 31 92 150° 5 - - - 0 None

Support USWX by starting your Amazon purchase here.